Regional Weather Roundup
Issued by NWS

Home | Current Version | Previous Version | Graphics & Text | Print | Product List | Glossary On
Versions: 1 2 3 4 5 6 7 8 9 10 11 12 13 14 15 16 17 18 19 20 21 22 23 24 25 26 27 28 29 30 31 32 33 34 35 36 37 38 39 40 41 42 43 44 45 46 47 48 49 50
000
ASUS43 KOAX 242310
RWRNE

WEATHER ROUNDUP FOR NEBRASKA
NATIONAL WEATHER SERVICE OMAHA NE
500 PM CST SAT JAN 24 2015

NOTES: SATELLITE DATA IS BEING USED TO AUGMENT CLOUD COVER ABOVE
       12000 FEET.
       "FAIR" INDICATES FEW OR NO CLOUDS BELOW 12,000 FEET WITH NO
       SIGNIFICANT WEATHER AND/OR OBSTRUCTIONS TO VISIBILITY.

  * THESE STATIONS DO NOT REPORT WEATHER SUCH AS RAIN...SNOW OR FOG.

NEZ001>004-019>022-054>056-250000-
NEBRASKA PANHANDLE

CITY           SKY/WX    TMP DP  RH WIND       PRES   REMARKS
SCOTTSBLUFF    LGT RAIN  42  34  73 NW24G37   29.97R
ALLIANCE       CLOUDY    43  34  70 NW21      29.89R
CHADRON        MOCLDY    45  34  65 NW23G37   29.87R
KIMBALL        CLOUDY    46  24  42 NW24G37   29.95R
SIDNEY         MOCLDY    50  26  39 NW26G35   29.92R
$$

NEZ057>060-069>072-079>082-250000-
SOUTHWEST NEBRASKA

CITY           SKY/WX    TMP DP  RH WIND       PRES   REMARKS
NORTH PLATTE   CLOUDY    46  27  47 W14       29.81R
IMPERIAL       CLOUDY    46  31  55 W14       29.87S
LEXINGTON      CLOUDY    50  29  45 W12       29.78S
MCCOOK         CLOUDY    48  34  58 W14       29.85R
OGALLALA       CLOUDY    50  32  48 NW23G31   29.85F
$$

NEZ005>010-023>029-035>040-094-250000-
NORTH CENTRAL NEBRASKA

CITY           SKY/WX    TMP DP  RH WIND       PRES   REMARKS
VALENTINE      CLOUDY    47  34  60 W13       29.72S
AINSWORTH      LGT RAIN  44  38  82 W6        29.72S
BROKEN BOW     CLOUDY    51  33  50 W12       29.73F
O`NEILL        LGT RAIN  49  36  59 W20G26    29.66S
ORD            LGT RAIN  46  38  73 W20G32    29.71R
THEDFORD       CLOUDY    51  35  54 W23G32    29.76R
$$

NEZ041-046>049-061>064-073>077-083>087-250000-
SOUTH CENTRAL NEBRASKA

CITY           SKY/WX    TMP DP  RH WIND       PRES   REMARKS
GRAND ISLAND   LGT RAIN  49  31  49 W12       29.73F
AURORA         CLOUDY    51  28  41 W10       29.72S
HASTINGS       CLOUDY    51  24  34 W9        29.74F
HEBRON         CLOUDY    53  22  30 W13G18    29.75S
HOLDREGE       CLOUDY    51  24  35 W14       29.77S
KEARNEY *      CLOUDY    52  27  37 W15       29.75F
YORK           LGT RAIN  50  30  46 W9        29.71F
$$

NEZ011>018-030>034-042>045-250000-
NORTHEAST NEBRASKA

CITY           SKY/WX    TMP DP  RH WIND       PRES   REMARKS
NORFOLK        CLOUDY    51  31  46 SW12      29.63F
ALBION         CLOUDY    50  29  45 W3        29.67F
BLAIR          CLOUDY    51  31  45 SW7       29.66F
COLUMBUS *     CLOUDY    50  28  43 W12       29.68F
FREMONT        CLOUDY    51  30  45 SW6       29.67F
TEKAMAH        CLOUDY    48  35  60 SW7       29.65F
WAYNE          CLOUDY    48  32  53 SW7       29.63F
$$

NEZ050>053-065>068-078-088>093-250000-
SOUTHEAST NEBRASKA

CITY           SKY/WX    TMP DP  RH WIND       PRES   REMARKS
LINCOLN        CLOUDY    53  28  38 W8        29.70F
OMAHA EPPLEY   CLOUDY    52  30  43 W7        29.67F
BEATRICE       CLOUDY    53  27  37 W14       29.72S
FALLS CITY     MOCLDY    52  28  39 SW12      29.71F
NEBRASKA CITY  CLOUDY    52  22  30 W9        29.69S
PLATTSMOUTH    CLOUDY    52  26  37 SW7       29.67F
$$

NEZ044-045-051>053-067-250000-
OMAHA AREA

CITY           SKY/WX    TMP DP  RH WIND       PRES   REMARKS
OMAHA EPPLEY   CLOUDY    52  30  43 W7        29.67F
BLAIR          CLOUDY    51  31  45 SW7       29.66F
FREMONT        CLOUDY    51  30  45 SW6       29.67F
MILLARD        CLOUDY    53  31  42 W6        29.67F
OFFUTT AFB     CLOUDY    52  30  43 W3        29.67F
PLATTSMOUTH    CLOUDY    52  26  37 SW7       29.67F
WAHOO          CLOUDY    51  29  42 W8        29.68S
$$


USA.gov is the U.S. government's official web portal to all federal, state and local government web resources and services.